Location: Enborne
(51.3833°N, 1.3667°W)
Time: 15:29:46
(UTC+00:00)

NOSS 2-2 (C) - Pass Details

Date: 19 January 2021
Orbit: 463 x 1745 km, 63.3° (Epoch: 03 March)

Event Time Altitude Azimuth Distance (km) Brightness Sun altitude
Rises 18:37:01 0° 305° (NW) 2,712 7.6 -18.8°
Reaches altitude 10° 18:39:30 10° 323° (NW) 1,947 6.5 -19.2°
Maximum altitude 18:42:48 20° 13° (NNE) 1,564 5.4 -19.7°
Enters shadow 18:43:25 20° 23° (NNE) 1,618 5.4 -19.8°
